Weather History for Pullman, WA

Change the Weather History Date:

Saturday, October 5, 2013

  Actual Average Record
Temperature  
Mean Temperature 51 °F 51 °F  
Max Temperature 64 °F 65 °F 83 °F (1993)
Min Temperature 37 °F 38 °F 20 °F (2012)
Degree Days  
Heating Degree Days 14 14  
Month to date heating degree days 96 65  
Since 1 July heating degree days 315 426  
Cooling Degree Days 0 0  
Month to date cooling degree days 0 0  
Year to date cooling degree days 334 212  
Moisture  
Dew Point 30 °F    
Average Humidity 51    
Maximum Humidity 76    
Minimum Humidity 25    
Precipitation  
Precipitation 0.00 in 0.04 in 0.42 in (1950)
Month to date precipitation T 0.17  
Year to date precipitation 11.54 11.86  
Sea Level Pressure  
Sea Level Pressure 30.40 in    
Wind  
Wind Speed 8 mph (East)    
Max Wind Speed 15 mph    
Max Gust Speed 18 mph    
Visibility 10 miles    
Events      
T = Trace of Precipitation, MM = Missing Value Source: NWS Daily Summary

Daily Weather History Graph

Daily Weather History Graph

Search for Another Location

Airport:

Trip Planner

Search our weather history database for the weather conditions in past years. The results will help you decide how hot, cold, wet, or windy it might be!

Date:

Astronomy

Oct. 05, 2013 Rise Set
Actual Time 6:52 AM PDT 6:19 PM PDT
Civil Twilight 6:22 AM PDT 6:49 PM PDT
Nautical Twilight 5:47 AM PDT 7:24 PM PDT
Astronomical Twilight 5:12 AM PDT 8:00 PM PDT
Moon 7:42 AM PDT (10/5) 6:35 PM PDT (10/5)
Length of Visible Light 12h 27m
Length of Day
11h 26m
New Moon, 1% of the Moon is Illuminated
Oct 5
New Moon
Oct 11
First Quarter
Oct 18
Full
Oct 26
Last Quarter
Nov 3
New

Hourly Weather History & Observations

Time (PDT) Temp. Windchill Dew Point Humidity Pressure Visibility Wind Dir Wind Speed Gust Speed Precip Events Conditions
12:53 AM 39.0 °F 34.8 °F 27.0 °F 62% 30.47 in 10.0 mi NNE 5.8 mph - N/A   Clear
1:53 AM 37.9 °F - 28.0 °F 68% 30.47 in 10.0 mi Calm Calm - N/A   Clear
2:53 AM 37.9 °F 32.1 °F 28.9 °F 70% 30.46 in 10.0 mi NE 8.1 mph - N/A   Clear
3:53 AM 39.0 °F 36.8 °F 30.0 °F 70% 30.45 in 10.0 mi ENE 3.5 mph - N/A   Clear
4:53 AM 37.9 °F 33.5 °F 30.0 °F 73% 30.45 in 10.0 mi East 5.8 mph - N/A   Clear
5:53 AM 39.0 °F 32.3 °F 30.0 °F 70% 30.45 in 10.0 mi East 10.4 mph - N/A   Clear
6:53 AM 39.0 °F 32.3 °F 30.9 °F 73% 30.47 in 10.0 mi East 10.4 mph - N/A   Clear
7:53 AM 41.0 °F 34.7 °F 32.0 °F 70% 30.47 in 10.0 mi East 10.4 mph - N/A   Clear
8:53 AM 45.0 °F 38.2 °F 33.1 °F 63% 30.48 in 10.0 mi East 15.0 mph - N/A   Clear
9:53 AM 48.9 °F - 33.1 °F 54% 30.47 in 10.0 mi East 12.7 mph - N/A   Clear
10:53 AM 53.1 °F - 34.0 °F 48% 30.47 in 10.0 mi East 8.1 mph - N/A   Clear
11:53 AM 57.0 °F - 34.0 °F 42% 30.45 in 10.0 mi East 6.9 mph - N/A   Clear
12:53 PM 60.1 °F - 32.0 °F 35% 30.42 in 10.0 mi East 8.1 mph - N/A   Clear
1:53 PM 61.0 °F - 30.0 °F 31% 30.40 in 10.0 mi South 6.9 mph - N/A   Clear
2:53 PM 63.0 °F - 28.0 °F 27% 30.37 in 10.0 mi SE 6.9 mph - N/A   Clear
3:53 PM 63.0 °F - 26.1 °F 25% 30.35 in 10.0 mi SE 8.1 mph - N/A   Clear
4:53 PM 63.0 °F - 27.0 °F 26% 30.35 in 10.0 mi ESE 6.9 mph - N/A   Clear
5:53 PM 60.1 °F - 28.0 °F 30% 30.33 in 10.0 mi East 5.8 mph - N/A   Clear
6:53 PM 52.0 °F - 30.9 °F 45% 30.34 in 10.0 mi NE 3.5 mph - N/A   Clear
7:53 PM 48.0 °F - 30.9 °F 52% 30.34 in 10.0 mi ENE 4.6 mph - N/A   Clear
8:53 PM 46.0 °F - 32.0 °F 58% 30.33 in 10.0 mi Calm Calm - N/A   Clear
9:53 PM 48.9 °F - 30.9 °F 50% 30.32 in 10.0 mi East 9.2 mph - N/A   Clear
10:53 PM 48.9 °F - 30.0 °F 48% 30.31 in 9.0 mi East 11.5 mph - N/A   Clear
11:53 PM 48.0 °F - 30.0 °F 50% 30.29 in 9.0 mi East 10.4 mph - N/A   Clear